[Iaude] MPEC X43: 2023 XG [a=1.03,e=0.05,i=9.1,H=26.0]

mpec at marsden.cfa.harvard.edu mpec at marsden.cfa.harvard.edu
Mon Dec 4 17:30:48 EST 2023


M.P.E.C. 2023-X43                              Issued 2023 December 4, 22:26 UT

     The Minor Planet Electronic Circulars contain information on unusual
         minor planets, routine data on comets and natural satellites,
         and occasional editorial announcements.  They are published
    on behalf of Division F of the International Astronomical Union by the
          Minor Planet Center, Smithsonian Astrophysical Observatory,
                          Cambridge, MA 02138, U.S.A.
			  
             Prepared using the Tamkin Foundation Computer Network

                              MPC at CFA.HARVARD.EDU
            URL https://www.minorplanetcenter.net/    ISSN 1523-6714

                                    2023 XG                                     


Observations:
     K23X00G* C2023 12 03.86103 03 08 04.78 +21 37 53.0          19.3 GVEX043K88
     K23X00G  C2023 12 03.86401 03 08 03.36 +21 38 43.9          19.7 GVEX043K88
     K23X00G  C2023 12 03.86698 03 08 02.01 +21 39 35.6          19.2 GVEX043K88
     K23X00G KC2023 12 03.88202 03 07 54.91 +21 43 56.9          19.2 GVEX043K88
     K23X00G KC2023 12 03.88419 03 07 53.95 +21 44 33.5          19.0 GVEX043K88
     K23X00G KC2023 12 03.88608 03 07 53.03 +21 45 06.4          19.1 GVEX043K88
     K23X00G KC2023 12 03.91900 03 07 37.59 +21 54 32.7          19.1 GVEX043K88
     K23X00G KC2023 12 03.92239 03 07 36.06 +21 55 31.7          19.3 GVEX043K88
     K23X00G KC2023 12 03.92578 03 07 34.47 +21 56 29.9          19.3 GVEX043K88
     K23X00G KC2023 12 04.00649 03 06 57.89 +22 19 14.0          19.2 GVEX043K88
     K23X00G KC2023 12 04.00920 03 06 56.72 +22 19 59.2          19.2 GVEX043K88
     K23X00G KC2023 12 04.14967103 06 16.40 +23 00 48.4          18.9 GVEX043H21
     K23X00G KC2023 12 04.15209403 06 15.24 +23 01 29.5          19.6 GVEX043H21
     K23X00G KC2023 12 04.15488903 06 13.89 +23 02 17.0          19.3 GVEX043H21
     K23X00G mC2023 12 04.16234703 06 17.179+23 04 46.92         19.09GVEX043I52
     K23X00G mC2023 12 04.16251603 06 17.086+23 04 50.02         19.37GVEX043I52
     K23X00G mC2023 12 04.16268603 06 17.024+23 04 53.00         19.17GVEX043I52
     K23X00G mC2023 12 04.16453403 06 16.121+23 05 24.47         19.21GVEX043I52
     K23X00G KC2023 12 04.17636903 06 08.97 +23 08 35.9          19.1 GXEX043858
     K23X00G KC2023 12 04.18287303 06 05.85 +23 10 26.4          19.0 GXEX043858
     K23X00G KC2023 12 04.19019403 06 02.30 +23 12 30.4          19.2 GXEX043858
     K23X00G 1C2023 12 04.25392403 05 32.845+23 30 30.56         19.74GVEX043703
     K23X00G 1C2023 12 04.25593103 05 31.870+23 31 04.22         19.19GVEX043703
     K23X00G 1C2023 12 04.25793203 05 30.880+23 31 36.08         18.96GVEX043703
     K23X00G 1C2023 12 04.25993403 05 29.900+23 32 11.18         19.17GVEX043703
     K23X00G  C2023 12 04.26684403 05 40.919+23 34 46.02         19.59wXEX043F52
     K23X00G  C2023 12 04.27852803 05 35.315+23 38 04.55         19.45wXEX043F52
     K23X00G  C2023 12 04.29030303 05 29.611+23 41 24.12         19.60wXEX043F52
     K23X00G  C2023 12 04.30196803 05 23.925+23 44 40.56         19.63wXEX043F52
     K23X00G KB2023 12 04.73685 03 02 44.92 +25 39 55.4          19.3 GXEX043M45
     K23X00G KB2023 12 04.73826 03 02 44.29 +25 40 18.1          19.5 GXEX043M45
     K23X00G KB2023 12 04.73958 03 02 43.70 +25 40 40.4          19.7 GXEX043M45
     K23X00G KB2023 12 04.79464103 02 24.737+25 55 20.75         19.2 GVEX043L17
     K23X00G KB2023 12 04.80902403 02 18.350+25 59 11.58         19.7 GVEX043L17
     K23X00G KB2023 12 04.82324203 02 12.050+26 02 59.75         18.7 GVEX043L17

Observer details:
703 Catalina Sky Survey.  Observer G. J. Leonard.  Measurers E. C. Beshore, D.
    Fay, J. B. Fazekas, D. C. Fuls, A. R. Gibbs, A. D. Grauer, H. Groeller, J.
    K. Hogan, R. A. Kowalski, S. M. Larson, G. J. Leonard, D. Rankin, R. L.
    Seaman, F. C. Shelly, K. W. Wierzchos.  0.68-m Schmidt + 10K CCD.
858 Tebbutt Observatory, Edgewood.  Observer F. B. Zoltowski.  0.51-m f/8.1
    Schmidt-Cassegrain + CCD.
F52 Pan-STARRS 2, Haleakala.  Observers J. Herman, T. Lowe, P. Minguez, A.
    Schultz, I. Smith.  Measurers K. Chambers, T. de Boer, J. Fairlamb, H.
    Gao, M. Huber, C.-C. Lin, E. Magnier, Y. Ramanjooloo, R. Wainscoat, R.
    Weryk.  1.8-m Ritchey-Chretien + CCD.
H21 Astronomical Research Observatory, Westfield.  Observer R. Holmes.
    Measurers T. Linder, R. Holmes, L. Horn.  0.76-m f/3.0 astrograph + CCD.
I52 Steward Observatory, Mt. Lemmon Station.  Observer G. J. Leonard.
    Measurers E. C. Beshore, D. Fay, J. B. Fazekas, D. C. Fuls, A. R. Gibbs,
    A. D. Grauer, H. Groeller, J. K. Hogan, R. A. Kowalski, S. M. Larson, G.
    J. Leonard, D. Rankin, R. L. Seaman, F. C. Shelly, K. W. Wierzchos.  1.0-m
    prime focus + CCD.
K88 GINOP-KHK, Piszkesteto.  Observer K. Sarneczky.  Measurers T. Maroti,
    K. Sarneczky.  0.60-m Schmidt + CCD.
L17 Observatori Astronomic Albanya.  Observers J. Camarasa, P. Guerra, P.
    Bosch.  Measurer J. Camarasa.  0.40-m f/8.4 reflector + CMO.
M45 Starhopper Observatory, Sfantu Gheorghe.  Observer F. Ursache.  0.41-m
    f/7.5 reflector + CMO.

Orbital elements:
2023 XG                                                  Earth MOID = 0.0203 AU
Epoch 2023 Sept. 13.0 TT = JDT 2460200.5                Veres                   
M 354.91553              (2000.0)            P               Q                  
n   0.94629380     Peri.  282.50861     +0.97955683     +0.13492232             
a   1.0275084      Node    69.88666     -0.05579659     +0.89485421             
e   0.0514403      Incl.    9.14325     -0.19327480     +0.42547846             
P   1.04           H   26.04          G   0.15           U   7                  
Residuals in seconds of arc
231203 K88  0.3+  0.1-    231204 H21  0.1-  0.0     231204 703  0.3+  1.1+
231203 K88  0.1+  1.0-    231204 H21  0.2-  0.3+    231204 F52  0.0   0.1-
231203 K88  0.7+  0.9-    231204 I52  0.3+  0.3-    231204 F52  0.0   0.1-
231203 K88  0.2+  0.2-    231204 I52  0.1+  0.1-    231204 F52  0.1-  0.1+
231203 K88  1.1+  1.1-    231204 I52  0.4+  0.0     231204 F52  0.0   0.2-
231203 K88  0.6+  0.9-    231204 I52  0.1+  0.1-    231204 M45  0.3-  0.0
231203 K88  0.1+  0.7-    231204 858  0.0   0.1-    231204 M45  0.5-  0.2-
231203 K88  0.8+  0.3+    231204 858  0.1+  0.1+    231204 M45  0.7-  0.8+
231203 K88  0.6+  0.5+    231204 858  0.3-  0.2+    231204 L17  0.6+  0.2+
231204 K88  0.5+  0.5-    231204 703  0.7+  0.2+    231204 L17  0.2-  0.5-
231204 K88  0.7+  0.7-    231204 703  0.7+  0.5+    231204 L17  0.2+  0.3-
231204 H21  0.1-  0.1-    231204 703  0.4+  0.8-

Ephemeris:
2023 XG                  a,e,i = 1.03, 0.05, 9                   q = 0.9747
Date    TT    R. A. (2000) Decl.     Delta      r    Elong.  Phase     V
2023 11 04    06 35 44.9 -66 45 13   0.07656 0.9910    87.1    88.5    23.6
...
2023 11 19    04 58 26.7 -50 05 02   0.04034 1.0018   108.2    69.6    21.5
...
2023 11 27    03 56 27.0 -18 08 05   0.02744 1.0083   140.8    38.2    19.8
...
2023 12 03    03 13 37.4 +17 20 44   0.02903 1.0133   160.5    19.0    19.4
2023 12 04    03 07 11.0 +22 19 38   0.03039 1.0141   158.8    20.5    19.5
2023 12 05    03 00 59.4 +26 50 01   0.03199 1.0150   156.4    22.9    19.7
...
2023 12 11    02 29 40.6 +45 05 47   0.04503 1.0201   140.8    37.6    20.9
...
2023 12 19    02 04 31.0 +55 54 44   0.06682 1.0270   128.6    48.5    22.0
...
2024 01 03    01 58 28.0 +63 21 48   0.1107  1.0397   117.9    56.7    23.4

M. P. C. Staff               (C) Copyright 2023 MPC           M.P.E.C. 2023-X43





More information about the Iaude mailing list